Time,TemperatureF,DewpointF,PressureIn,WindDirection,WindDirectionDegrees,WindSpeedMPH,WindSpeedGustMPH,Humidity,HourlyPrecipIn,Conditions,Clouds,dailyrainin,SoftwareType,DateUTC
2013-11-05 00:02:00,57.2,56.3,28.48,East,90,11.0,14.0,97,0.00,,,0.00,meteohub,2013-11-05 06:02:00,
2013-11-05 00:07:00,57.0,56.1,28.48,East,90,11.0,14.0,97,0.00,,,0.00,meteohub,2013-11-05 06:07:00,
2013-11-05 00:12:00,57.2,56.3,28.48,East,90,9.0,14.0,97,0.00,,,0.00,meteohub,2013-11-05 06:12:00,
2013-11-05 00:17:00,57.7,57.2,28.49,ENE,68,8.0,13.0,98,0.00,,,0.00,meteohub,2013-11-05 06:17:00,
2013-11-05 00:22:00,57.6,57.0,28.48,East,90,7.0,13.0,98,0.00,,,0.00,meteohub,2013-11-05 06:22:00,
2013-11-05 00:27:00,57.4,56.8,28.48,East,90,12.0,13.0,98,0.00,,,0.00,meteohub,2013-11-05 06:27:00,
2013-11-05 00:32:00,57.4,56.8,28.48,East,90,10.0,13.0,98,0.00,,,0.00,meteohub,2013-11-05 06:32:00,
2013-11-05 00:37:00,57.2,56.7,28.48,SE,135,13.0,13.0,98,0.00,,,0.00,meteohub,2013-11-05 06:37:00,
2013-11-05 00:42:00,57.4,56.8,28.48,SE,135,8.0,13.0,98,0.00,,,0.00,meteohub,2013-11-05 06:42:00,
2013-11-05 00:47:00,57.6,57.0,28.48,East,90,8.0,13.0,98,0.00,,,0.00,meteohub,2013-11-05 06:47:00,
2013-11-05 00:52:00,57.6,57.2,28.48,East,90,9.0,13.0,99,0.00,,,0.00,meteohub,2013-11-05 06:52:00,
2013-11-05 00:57:00,57.7,57.4,28.48,East,90,7.0,13.0,99,0.00,,,0.00,meteohub,2013-11-05 06:57:00,
2013-11-05 01:02:00,57.9,57.4,28.47,East,90,11.0,13.0,98,0.00,,,0.00,meteohub,2013-11-05 07:02:00,
2013-11-05 01:07:00,58.1,57.7,28.47,SE,135,15.0,15.0,99,0.00,,,0.00,meteohub,2013-11-05 07:07:00,
2013-11-05 01:12:00,58.5,58.1,28.48,East,90,11.0,15.0,99,0.00,,,0.00,meteohub,2013-11-05 07:12:00,
2013-11-05 01:17:00,58.3,57.9,28.48,SE,135,15.0,15.0,99,0.00,,,0.00,meteohub,2013-11-05 07:17:00,
2013-11-05 01:23:00,58.6,58.3,28.48,SE,135,11.0,15.0,99,0.00,,,0.00,meteohub,2013-11-05 07:23:00,
2013-11-05 01:28:00,58.3,57.7,28.48,East,90,15.0,15.0,98,0.00,,,0.00,meteohub,2013-11-05 07:28:00,
2013-11-05 01:33:00,58.5,57.9,28.48,SE,135,8.0,15.0,98,0.00,,,0.00,meteohub,2013-11-05 07:33:00,
2013-11-05 01:38:00,58.6,58.1,28.48,NE,45,8.0,15.0,98,0.00,,,0.00,meteohub,2013-11-05 07:38:00,
2013-11-05 01:43:00,59.0,58.5,28.48,East,90,11.0,15.0,98,0.00,,,0.00,meteohub,2013-11-05 07:43:00,
2013-11-05 01:48:00,58.6,58.1,28.48,SE,135,1.0,11.0,98,0.00,,,0.00,meteohub,2013-11-05 07:48:00,
2013-11-05 01:53:00,58.8,58.3,28.48,SE,135,10.0,11.0,98,0.00,,,0.00,meteohub,2013-11-05 07:53:00,
2013-11-05 01:58:00,58.8,58.3,28.48,East,90,14.0,14.0,98,0.00,,,0.00,meteohub,2013-11-05 07:58:00,
2013-11-05 02:03:00,59.0,58.5,28.48,East,90,11.0,14.0,98,0.00,,,0.00,meteohub,2013-11-05 08:03:00,
2013-11-05 02:08:00,59.2,58.6,28.48,NE,45,11.0,15.0,98,0.00,,,0.00,meteohub,2013-11-05 08:08:00,
2013-11-05 02:13:00,59.2,58.6,28.47,East,90,8.0,15.0,98,0.00,,,0.00,meteohub,2013-11-05 08:13:00,
2013-11-05 02:18:00,59.2,58.6,28.48,East,90,11.0,15.0,98,0.00,,,0.00,meteohub,2013-11-05 08:18:00,
2013-11-05 02:23:00,59.2,58.8,28.47,SE,135,13.0,13.0,99,0.00,,,0.00,meteohub,2013-11-05 08:23:00,
2013-11-05 02:28:00,59.0,58.5,28.47,SE,135,8.0,13.0,98,0.00,,,0.00,meteohub,2013-11-05 08:28:00,
2013-11-05 02:33:00,59.2,58.8,28.47,East,90,8.0,13.0,99,0.00,,,0.00,meteohub,2013-11-05 08:33:00,
2013-11-05 02:38:00,59.2,58.8,28.47,East,90,7.0,13.0,99,0.00,,,0.00,meteohub,2013-11-05 08:38:00,
2013-11-05 02:43:00,59.0,58.6,28.47,NE,45,9.0,14.0,99,0.00,,,0.00,meteohub,2013-11-05 08:43:00,
2013-11-05 02:48:00,59.2,58.8,28.47,East,90,9.0,14.0,99,0.00,,,0.00,meteohub,2013-11-05 08:48:00,
2013-11-05 02:53:00,59.2,58.8,28.47,SE,135,7.0,14.0,99,0.00,,,0.00,meteohub,2013-11-05 08:53:00,
2013-11-05 02:58:00,59.2,58.8,28.47,East,90,8.0,10.0,99,0.00,,,0.00,meteohub,2013-11-05 08:58:00,
2013-11-05 03:03:00,59.2,58.8,28.46,NE,45,9.0,12.0,99,0.00,,,0.00,meteohub,2013-11-05 09:03:00,
2013-11-05 03:08:00,59.2,58.8,28.46,East,90,8.0,12.0,99,0.00,,,0.00,meteohub,2013-11-05 09:08:00,
2013-11-05 03:13:00,59.4,59.0,28.46,East,90,8.0,12.0,99,0.00,,,0.00,meteohub,2013-11-05 09:13:00,
2013-11-05 03:18:00,59.5,59.2,28.46,SE,135,10.0,11.0,99,0.00,,,0.00,meteohub,2013-11-05 09:18:00,
2013-11-05 03:23:00,59.2,58.8,28.46,East,90,8.0,11.0,99,0.00,,,0.00,meteohub,2013-11-05 09:23:00,
2013-11-05 03:28:00,59.4,59.0,28.46,East,90,10.0,11.0,99,0.00,,,0.00,meteohub,2013-11-05 09:28:00,
2013-11-05 03:33:00,59.5,59.2,28.46,East,90,5.0,11.0,99,0.00,,,0.00,meteohub,2013-11-05 09:33:00,
2013-11-05 03:38:00,59.5,59.2,28.46,East,90,6.0,11.0,99,0.00,,,0.00,meteohub,2013-11-05 09:38:00,
2013-11-05 03:43:00,59.7,59.4,28.46,East,90,8.0,11.0,99,0.00,,,0.00,meteohub,2013-11-05 09:43:00,
2013-11-05 03:48:00,59.5,59.2,28.46,East,90,7.0,11.0,99,0.00,,,0.00,meteohub,2013-11-05 09:48:00,
2013-11-05 03:53:00,59.7,59.4,28.46,NE,45,6.0,11.0,99,0.00,,,0.00,meteohub,2013-11-05 09:53:00,
2013-11-05 03:58:00,59.7,59.4,28.46,SE,135,8.0,11.0,99,0.00,,,0.00,meteohub,2013-11-05 09:58:00,
2013-11-05 04:03:00,59.9,59.5,28.46,South,180,9.0,11.0,99,0.00,,,0.00,meteohub,2013-11-05 10:03:00,
2013-11-05 04:08:00,59.9,59.5,28.46,East,90,11.0,11.0,99,0.00,,,0.00,meteohub,2013-11-05 10:08:00,
2013-11-05 04:13:00,59.7,59.2,28.46,East,90,6.0,11.0,98,0.00,,,0.00,meteohub,2013-11-05 10:13:00,
2013-11-05 04:18:00,60.1,59.7,28.46,North,0,5.0,11.0,99,0.00,,,0.00,meteohub,2013-11-05 10:18:00,
2013-11-05 04:23:00,59.7,59.2,28.46,East,90,7.0,11.0,98,0.00,,,0.00,meteohub,2013-11-05 10:23:00,
2013-11-05 04:28:00,59.9,59.4,28.46,East,90,8.0,11.0,98,0.00,,,0.00,meteohub,2013-11-05 10:28:00,
2013-11-05 04:33:00,59.7,59.2,28.45,East,90,9.0,11.0,98,0.00,,,0.00,meteohub,2013-11-05 10:33:00,
2013-11-05 04:38:00,59.9,59.4,28.45,East,90,8.0,11.0,98,0.00,,,0.00,meteohub,2013-11-05 10:38:00,
2013-11-05 04:43:00,59.7,59.4,28.45,East,90,11.0,11.0,99,0.00,,,0.00,meteohub,2013-11-05 10:43:00,
2013-11-05 04:48:00,59.9,59.5,28.45,SE,135,9.0,14.0,99,0.00,,,0.00,meteohub,2013-11-05 10:48:00,
2013-11-05 04:53:00,59.9,59.5,28.45,East,90,10.0,14.0,99,0.00,,,0.00,meteohub,2013-11-05 10:53:00,
2013-11-05 04:58:00,59.7,59.4,28.45,SE,135,8.0,14.0,99,0.00,,,0.00,meteohub,2013-11-05 10:58:00,
2013-11-05 05:03:00,59.7,59.4,28.45,East,90,8.0,12.0,99,0.00,,,0.00,meteohub,2013-11-05 11:03:00,
2013-11-05 05:08:00,59.5,59.2,28.45,ESE,113,8.0,12.0,99,0.00,,,0.00,meteohub,2013-11-05 11:08:00,
2013-11-05 05:13:00,59.7,59.4,28.45,East,90,5.0,12.0,99,0.00,,,0.00,meteohub,2013-11-05 11:13:00,
2013-11-05 05:18:00,59.7,59.4,28.45,East,90,4.0,11.0,99,0.00,,,0.00,meteohub,2013-11-05 11:18:00,
2013-11-05 05:23:00,59.5,59.2,28.45,East,90,9.0,11.0,99,0.00,,,0.00,meteohub,2013-11-05 11:23:00,
2013-11-05 05:28:00,59.7,59.4,28.45,East,90,7.0,11.0,99,0.00,,,0.00,meteohub,2013-11-05 11:28:00,
2013-11-05 05:33:00,59.9,59.5,28.45,East,90,6.0,9.0,99,0.00,,,0.00,meteohub,2013-11-05 11:33:00,
2013-11-05 05:38:00,59.9,59.5,28.45,SE,135,7.0,11.0,99,0.00,,,0.00,meteohub,2013-11-05 11:38:00,
2013-11-05 05:43:00,59.9,59.5,28.45,East,90,8.0,14.0,99,0.00,,,0.00,meteohub,2013-11-05 11:43:00,
2013-11-05 05:48:00,59.9,59.5,28.45,SE,135,10.0,14.0,99,0.00,,,0.00,meteohub,2013-11-05 11:48:00,
2013-11-05 05:53:00,60.1,59.7,28.45,East,90,12.0,14.0,99,0.00,,,0.00,meteohub,2013-11-05 11:53:00,
2013-11-05 05:59:00,59.9,59.5,28.45,East,90,7.0,12.0,99,0.00,,,0.00,meteohub,2013-11-05 11:59:00,
2013-11-05 06:04:00,59.7,59.4,28.45,East,90,11.0,12.0,99,0.00,,,0.00,meteohub,2013-11-05 12:04:00,
2013-11-05 06:09:00,60.1,59.7,28.45,East,90,7.0,12.0,99,0.00,,,0.00,meteohub,2013-11-05 12:09:00,
2013-11-05 06:14:00,59.9,59.5,28.45,East,90,8.0,13.0,99,0.00,,,0.00,meteohub,2013-11-05 12:14:00,
2013-11-05 06:19:00,59.9,59.5,28.45,SE,135,6.0,13.0,99,0.00,,,0.00,meteohub,2013-11-05 12:19:00,
2013-11-05 06:24:00,60.1,59.7,28.44,East,90,13.0,13.0,99,0.00,,,0.00,meteohub,2013-11-05 12:24:00,
2013-11-05 06:29:00,60.1,59.7,28.44,North,0,8.0,13.0,99,0.00,,,0.00,meteohub,2013-11-05 12:29:00,
2013-11-05 06:34:00,59.9,59.5,28.45,East,90,12.0,13.0,99,0.00,,,0.00,meteohub,2013-11-05 12:34:00,
2013-11-05 06:39:00,59.9,59.5,28.44,East,90,10.0,13.0,99,0.00,,,0.00,meteohub,2013-11-05 12:39:00,
2013-11-05 06:44:00,59.9,59.5,28.44,East,90,10.0,13.0,99,0.00,,,0.00,meteohub,2013-11-05 12:44:00,
2013-11-05 06:49:00,60.1,59.7,28.44,East,90,11.0,13.0,99,0.00,,,0.00,meteohub,2013-11-05 12:49:00,
2013-11-05 06:54:00,59.7,59.4,28.44,NE,45,7.0,11.0,99,0.00,,,0.00,meteohub,2013-11-05 12:54:00,
2013-11-05 06:59:00,59.9,59.5,28.44,NE,45,11.0,11.0,99,0.00,,,0.00,meteohub,2013-11-05 12:59:00,
2013-11-05 07:04:00,59.9,59.5,28.44,SE,135,4.0,11.0,99,0.00,,,0.00,meteohub,2013-11-05 13:04:00,
2013-11-05 07:09:00,59.7,59.4,28.44,East,90,6.0,11.0,99,0.00,,,0.00,meteohub,2013-11-05 13:09:00,
2013-11-05 07:14:00,60.1,59.7,28.44,East,90,8.0,11.0,99,0.00,,,0.00,meteohub,2013-11-05 13:14:00,
2013-11-05 07:19:00,59.9,59.5,28.45,NE,45,4.0,11.0,99,0.00,,,0.00,meteohub,2013-11-05 13:19:00,
2013-11-05 07:24:00,59.9,59.5,28.45,East,90,6.0,12.0,99,0.00,,,0.00,meteohub,2013-11-05 13:24:00,
2013-11-05 07:29:00,59.9,59.5,28.45,East,90,4.0,12.0,99,0.00,,,0.00,meteohub,2013-11-05 13:29:00,
2013-11-05 07:34:00,59.9,59.5,28.45,East,90,8.0,12.0,99,0.00,,,0.00,meteohub,2013-11-05 13:34:00,
2013-11-05 07:39:00,59.9,59.5,28.45,East,90,7.0,14.0,99,0.00,,,0.00,meteohub,2013-11-05 13:39:00,
2013-11-05 07:44:00,59.9,59.5,28.45,NE,45,5.0,15.0,99,0.00,,,0.00,meteohub,2013-11-05 13:44:00,
2013-11-05 07:49:00,60.1,59.7,28.45,East,90,6.0,15.0,99,0.00,,,0.00,meteohub,2013-11-05 13:49:00,
2013-11-05 07:54:00,60.1,59.7,28.45,East,90,10.0,15.0,99,0.00,,,0.00,meteohub,2013-11-05 13:54:00,
2013-11-05 07:59:00,60.3,59.9,28.45,East,90,12.0,12.0,99,0.00,,,0.00,meteohub,2013-11-05 13:59:00,
2013-11-05 08:04:00,60.4,60.1,28.45,East,90,9.0,14.0,99,0.00,,,0.00,meteohub,2013-11-05 14:04:00,
2013-11-05 08:09:00,60.6,60.3,28.46,East,90,12.0,14.0,99,0.00,,,0.00,meteohub,2013-11-05 14:09:00,
2013-11-05 08:14:00,60.8,60.4,28.45,East,90,10.0,14.0,99,0.00,,,0.00,meteohub,2013-11-05 14:14:00,
2013-11-05 08:19:00,60.6,60.3,28.46,NE,45,13.0,14.0,99,0.00,,,0.00,meteohub,2013-11-05 14:19:00,
2013-11-05 08:24:00,60.8,60.4,28.46,East,90,6.0,14.0,99,0.00,,,0.00,meteohub,2013-11-05 14:24:00,
2013-11-05 08:29:00,60.6,60.3,28.46,East,90,15.0,15.0,99,0.00,,,0.00,meteohub,2013-11-05 14:29:00,
2013-11-05 08:34:00,60.8,60.4,28.46,East,90,10.0,13.0,99,0.00,,,0.00,meteohub,2013-11-05 14:34:00,
2013-11-05 08:39:00,60.8,60.4,28.46,East,90,12.0,15.0,99,0.00,,,0.00,meteohub,2013-11-05 14:39:00,
2013-11-05 08:44:00,60.6,60.3,28.46,East,90,1.0,15.0,99,0.00,,,0.00,meteohub,2013-11-05 14:44:00,
2013-11-05 08:49:00,61.0,60.6,28.47,East,90,4.0,14.0,99,0.00,,,0.00,meteohub,2013-11-05 14:49:00,
2013-11-05 08:54:00,61.2,60.8,28.47,East,90,7.0,14.0,99,0.00,,,0.00,meteohub,2013-11-05 14:54:00,
2013-11-05 08:59:00,61.2,60.8,28.46,South,180,12.0,14.0,99,0.00,,,0.00,meteohub,2013-11-05 14:59:00,
2013-11-05 09:04:00,61.3,61.0,28.46,NE,45,9.0,12.0,99,0.00,,,0.00,meteohub,2013-11-05 15:04:00,
2013-11-05 09:09:00,61.5,61.2,28.47,East,90,10.0,12.0,99,0.00,,,0.00,meteohub,2013-11-05 15:09:00,
2013-11-05 09:14:00,61.5,61.2,28.46,South,180,8.0,12.0,99,0.00,,,0.00,meteohub,2013-11-05 15:14:00,
2013-11-05 09:19:00,61.5,61.2,28.47,SE,135,5.0,11.0,99,0.00,,,0.00,meteohub,2013-11-05 15:19:00,
2013-11-05 09:24:00,61.5,61.2,28.47,East,90,8.0,11.0,99,0.00,,,0.00,meteohub,2013-11-05 15:24:00,
2013-11-05 09:29:00,61.5,61.2,28.46,East,90,8.0,14.0,99,0.00,,,0.00,meteohub,2013-11-05 15:29:00,
2013-11-05 09:34:00,61.7,61.3,28.46,East,90,7.0,14.0,99,0.00,,,0.00,meteohub,2013-11-05 15:34:00,
2013-11-05 09:39:00,61.5,61.2,28.46,SE,135,5.0,11.0,99,0.00,,,0.00,meteohub,2013-11-05 15:39:00,
2013-11-05 09:44:00,61.7,61.3,28.46,East,90,8.0,11.0,99,0.00,,,0.00,meteohub,2013-11-05 15:44:00,
2013-11-05 09:49:00,61.7,61.3,28.46,SE,135,6.0,10.0,99,0.00,,,0.00,meteohub,2013-11-05 15:49:00,
2013-11-05 09:54:00,62.1,61.7,28.46,East,90,6.0,10.0,99,0.00,,,0.00,meteohub,2013-11-05 15:54:00,
2013-11-05 09:59:00,62.2,61.9,28.46,South,180,8.0,9.0,99,0.00,,,0.00,meteohub,2013-11-05 15:59:00,
2013-11-05 10:04:00,62.1,61.5,28.46,East,90,4.0,9.0,98,0.00,,,0.00,meteohub,2013-11-05 16:04:00,
2013-11-05 10:09:00,62.4,61.9,28.46,SSE,158,1.0,8.0,98,0.00,,,0.00,meteohub,2013-11-05 16:09:00,
2013-11-05 10:14:00,62.6,62.1,28.46,SE,135,1.0,8.0,98,0.00,,,0.00,meteohub,2013-11-05 16:14:00,
2013-11-05 10:19:00,62.6,62.1,28.46,East,90,4.0,8.0,98,0.00,,,0.00,meteohub,2013-11-05 16:19:00,
2013-11-05 10:24:00,62.8,62.2,28.46,SE,135,2.0,8.0,98,0.00,,,0.00,meteohub,2013-11-05 16:24:00,
2013-11-05 10:29:00,63.0,62.1,28.45,SE,135,8.0,8.0,97,0.00,,,0.00,meteohub,2013-11-05 16:29:00,
2013-11-05 10:34:00,63.0,62.1,28.45,East,90,3.0,13.0,97,0.00,,,0.00,meteohub,2013-11-05 16:34:00,
2013-11-05 10:39:00,63.1,62.2,28.45,East,90,5.0,13.0,97,0.00,,,0.00,meteohub,2013-11-05 16:39:00,
2013-11-05 10:44:00,63.3,62.2,28.45,East,90,6.0,13.0,96,0.00,,,0.00,meteohub,2013-11-05 16:44:00,
2013-11-05 10:49:00,63.7,62.6,28.45,SE,135,1.0,11.0,96,0.00,,,0.00,meteohub,2013-11-05 16:49:00,
2013-11-05 10:54:00,63.9,62.8,28.45,East,90,7.0,11.0,96,0.00,,,0.00,meteohub,2013-11-05 16:54:00,
2013-11-05 10:59:00,63.9,62.8,28.45,East,90,2.0,7.0,96,0.00,,,0.00,meteohub,2013-11-05 16:59:00,
2013-11-05 11:04:00,64.0,62.6,28.45,East,90,1.0,7.0,95,0.00,,,0.00,meteohub,2013-11-05 17:04:00,
2013-11-05 11:09:00,64.4,63.0,28.45,East,90,4.0,7.0,95,0.00,,,0.00,meteohub,2013-11-05 17:09:00,
2013-11-05 11:14:00,64.6,62.8,28.44,SE,135,9.0,9.0,94,0.00,,,0.00,meteohub,2013-11-05 17:14:00,
2013-11-05 11:19:00,65.3,63.1,28.45,East,90,10.0,10.0,93,0.00,,,0.00,meteohub,2013-11-05 17:19:00,
2013-11-05 11:24:00,65.3,63.0,28.44,SE,135,8.0,9.0,92,0.00,,,0.00,meteohub,2013-11-05 17:24:00,
2013-11-05 11:29:00,65.5,62.8,28.44,SE,135,4.0,11.0,91,0.00,,,0.00,meteohub,2013-11-05 17:29:00,
2013-11-05 11:34:00,65.8,63.1,28.44,SE,135,5.0,11.0,91,0.00,,,0.00,meteohub,2013-11-05 17:34:00,
2013-11-05 11:39:00,66.0,63.0,28.44,South,180,8.0,10.0,90,0.00,,,0.00,meteohub,2013-11-05 17:39:00,
2013-11-05 11:44:00,66.2,62.8,28.43,SE,135,8.0,8.0,89,0.00,,,0.00,meteohub,2013-11-05 17:44:00,
2013-11-05 11:49:00,66.6,63.1,28.43,South,180,11.0,11.0,89,0.00,,,0.00,meteohub,2013-11-05 17:49:00,
2013-11-05 11:54:00,66.6,63.0,28.43,SE,135,5.0,11.0,88,0.00,,,0.00,meteohub,2013-11-05 17:54:00,
2013-11-05 11:59:00,66.7,62.8,28.43,SE,135,5.0,11.0,87,0.00,,,0.00,meteohub,2013-11-05 17:59:00,
2013-11-05 12:04:00,66.9,63.0,28.43,East,90,9.0,11.0,87,0.00,,,0.00,meteohub,2013-11-05 18:04:00,
2013-11-05 12:09:00,66.9,63.0,28.43,SW,225,7.0,9.0,87,0.00,,,0.00,meteohub,2013-11-05 18:09:00,
2013-11-05 12:14:00,67.5,63.5,28.42,SE,135,6.0,10.0,87,0.00,,,0.00,meteohub,2013-11-05 18:14:00,
2013-11-05 12:19:00,67.3,63.0,28.42,SE,135,9.0,10.0,86,0.00,,,0.00,meteohub,2013-11-05 18:19:00,
2013-11-05 12:24:00,67.3,63.3,28.42,South,180,6.0,17.0,87,0.00,,,0.00,meteohub,2013-11-05 18:24:00,
2013-11-05 12:29:00,67.5,63.1,28.42,South,180,7.0,17.0,86,0.00,,,0.00,meteohub,2013-11-05 18:29:00,
2013-11-05 12:34:00,67.5,63.1,28.41,SE,135,8.0,17.0,86,0.00,,,0.00,meteohub,2013-11-05 18:34:00,
2013-11-05 12:39:00,68.7,64.0,28.41,SSE,158,11.0,12.0,85,0.00,,,0.00,meteohub,2013-11-05 18:39:00,
2013-11-05 12:44:00,69.1,63.7,28.40,SE,135,9.0,12.0,83,0.00,,,0.00,meteohub,2013-11-05 18:44:00,
2013-11-05 12:49:00,70.0,63.9,28.40,SE,135,8.0,13.0,81,0.00,,,0.00,meteohub,2013-11-05 18:49:00,
2013-11-05 12:54:00,70.0,63.5,28.40,NE,45,7.0,13.0,80,0.00,,,0.00,meteohub,2013-11-05 18:54:00,
2013-11-05 13:00:00,69.8,63.3,28.39,South,180,8.0,13.0,80,0.00,,,0.00,meteohub,2013-11-05 19:00:00,
2013-11-05 13:05:00,70.2,63.7,28.39,SE,135,5.0,11.0,80,0.00,,,0.00,meteohub,2013-11-05 19:05:00,
2013-11-05 13:10:00,70.5,63.3,28.39,South,180,11.0,11.0,78,0.00,,,0.00,meteohub,2013-11-05 19:10:00,
2013-11-05 13:15:00,71.2,63.7,28.38,SE,135,7.0,11.0,77,0.00,,,0.00,meteohub,2013-11-05 19:15:00,
2013-11-05 13:20:00,71.4,63.9,28.38,SSE,158,7.0,11.0,77,0.00,,,0.00,meteohub,2013-11-05 19:20:00,
2013-11-05 13:25:00,71.4,63.1,28.38,East,90,11.0,11.0,75,0.00,,,0.00,meteohub,2013-11-05 19:25:00,
2013-11-05 13:30:00,71.6,63.3,28.38,SE,135,8.0,11.0,75,0.00,,,0.00,meteohub,2013-11-05 19:30:00,
2013-11-05 13:35:00,71.2,63.0,28.38,SE,135,7.0,16.0,75,0.00,,,0.00,meteohub,2013-11-05 19:35:00,
2013-11-05 13:40:00,71.2,63.0,28.38,South,180,6.0,16.0,75,0.00,,,0.00,meteohub,2013-11-05 19:40:00,
2013-11-05 13:45:00,70.9,63.0,28.38,South,180,4.0,16.0,76,0.00,,,0.00,meteohub,2013-11-05 19:45:00,
2013-11-05 13:50:00,70.5,63.0,28.38,East,90,8.0,15.0,77,0.00,,,0.00,meteohub,2013-11-05 19:50:00,
2013-11-05 13:55:00,70.9,63.3,28.37,SE,135,8.0,15.0,77,0.00,,,0.00,meteohub,2013-11-05 19:55:00,
2013-11-05 14:00:00,70.9,63.3,28.37,SE,135,6.0,10.0,77,0.00,,,0.00,meteohub,2013-11-05 20:00:00,
2013-11-05 14:05:00,71.4,63.5,28.37,SW,225,7.0,9.0,76,0.00,,,0.00,meteohub,2013-11-05 20:05:00,
2013-11-05 14:10:00,71.6,63.7,28.37,East,90,5.0,11.0,76,0.00,,,0.00,meteohub,2013-11-05 20:10:00,
2013-11-05 14:15:00,71.6,63.3,28.37,East,90,7.0,11.0,75,0.00,,,0.00,meteohub,2013-11-05 20:15:00,
2013-11-05 14:20:00,71.8,63.5,28.37,SE,135,3.0,11.0,75,0.00,,,0.00,meteohub,2013-11-05 20:20:00,
2013-11-05 14:25:00,72.0,63.7,28.36,East,90,5.0,11.0,75,0.00,,,0.00,meteohub,2013-11-05 20:25:00,
2013-11-05 14:30:00,72.3,63.5,28.36,SE,135,8.0,11.0,74,0.00,,,0.00,meteohub,2013-11-05 20:30:00,
2013-11-05 14:35:00,72.5,63.7,28.36,East,90,8.0,11.0,74,0.00,,,0.00,meteohub,2013-11-05 20:35:00,
2013-11-05 14:40:00,73.0,63.9,28.36,East,90,4.0,10.0,73,0.00,,,0.00,meteohub,2013-11-05 20:40:00,
2013-11-05 14:45:00,72.9,63.7,28.35,South,180,6.0,11.0,73,0.00,,,0.00,meteohub,2013-11-05 20:45:00,
2013-11-05 14:50:00,72.7,63.5,28.35,East,90,5.0,11.0,73,0.00,,,0.00,meteohub,2013-11-05 20:50:00,
2013-11-05 14:55:00,72.5,63.7,28.35,North,0,4.0,11.0,74,0.00,,,0.00,meteohub,2013-11-05 20:55:00,
2013-11-05 15:00:00,72.1,63.3,28.35,SE,135,12.0,12.0,74,0.00,,,0.00,meteohub,2013-11-05 21:00:00,
2013-11-05 15:05:00,72.0,63.7,28.35,SE,135,11.0,12.0,75,0.00,,,0.00,meteohub,2013-11-05 21:05:00,
2013-11-05 15:10:00,71.6,63.7,28.35,East,90,8.0,15.0,76,0.00,,,0.00,meteohub,2013-11-05 21:10:00,
2013-11-05 15:15:00,71.4,63.9,28.34,SE,135,1.0,15.0,77,0.00,,,0.00,meteohub,2013-11-05 21:15:00,
2013-11-05 15:20:00,71.4,63.9,28.34,East,90,8.0,15.0,77,0.00,,,0.00,meteohub,2013-11-05 21:20:00,
2013-11-05 15:25:00,71.8,64.2,28.34,East,90,7.0,11.0,77,0.00,,,0.00,meteohub,2013-11-05 21:25:00,
2013-11-05 15:30:00,72.0,64.4,28.34,East,90,9.0,11.0,77,0.00,,,0.00,meteohub,2013-11-05 21:30:00,
2013-11-05 15:35:00,72.7,64.8,28.34,South,180,9.0,11.0,76,0.00,,,0.00,meteohub,2013-11-05 21:35:00,
2013-11-05 15:40:00,72.9,64.0,28.33,West,270,9.0,10.0,74,0.00,,,0.00,meteohub,2013-11-05 21:40:00,
2013-11-05 15:45:00,73.0,64.2,28.34,SE,135,9.0,11.0,74,0.00,,,0.00,meteohub,2013-11-05 21:45:00,
2013-11-05 15:50:00,73.0,63.9,28.34,SSE,158,8.0,11.0,73,0.00,,,0.00,meteohub,2013-11-05 21:50:00,
2013-11-05 15:56:00,73.2,64.0,28.33,SW,225,6.0,14.0,73,0.00,,,0.00,meteohub,2013-11-05 21:56:00,
2013-11-05 16:01:00,73.4,63.9,28.33,East,90,15.0,15.0,72,0.00,,,0.00,meteohub,2013-11-05 22:01:00,
2013-11-05 16:06:00,73.2,63.7,28.34,SE,135,8.0,15.0,72,0.00,,,0.00,meteohub,2013-11-05 22:06:00,
2013-11-05 16:11:00,73.9,64.4,28.34,South,180,7.0,15.0,72,0.00,,,0.00,meteohub,2013-11-05 22:11:00,
2013-11-05 16:16:00,74.1,63.7,28.34,SE,135,8.0,15.0,70,0.00,,,0.00,meteohub,2013-11-05 22:16:00,
2013-11-05 16:21:00,73.9,63.5,28.33,East,90,8.0,14.0,70,0.00,,,0.00,meteohub,2013-11-05 22:21:00,
2013-11-05 16:26:00,73.8,63.7,28.34,East,90,9.0,14.0,71,0.00,,,0.00,meteohub,2013-11-05 22:26:00,
2013-11-05 16:31:00,73.6,64.0,28.33,East,90,8.0,11.0,72,0.00,,,0.00,meteohub,2013-11-05 22:31:00,
2013-11-05 16:36:00,73.4,63.9,28.33,East,90,2.0,13.0,72,0.00,,,0.00,meteohub,2013-11-05 22:36:00,
2013-11-05 16:41:00,74.5,64.4,28.34,SE,135,7.0,13.0,71,0.00,,,0.00,meteohub,2013-11-05 22:41:00,
2013-11-05 16:46:00,74.7,64.2,28.34,SE,135,8.0,13.0,70,0.00,,,0.00,meteohub,2013-11-05 22:46:00,
2013-11-05 16:51:00,73.9,64.4,28.34,South,180,5.0,13.0,72,0.00,,,0.00,meteohub,2013-11-05 22:51:00,
2013-11-05 16:56:00,73.0,64.2,28.34,South,180,8.0,11.0,74,0.00,,,0.00,meteohub,2013-11-05 22:56:00,
2013-11-05 17:01:00,72.7,64.8,28.34,SE,135,8.0,11.0,76,0.00,,,0.00,meteohub,2013-11-05 23:01:00,
2013-11-05 17:06:00,72.1,64.9,28.35,East,90,5.0,9.0,78,0.00,,,0.00,meteohub,2013-11-05 23:06:00,
2013-11-05 17:11:00,71.8,64.6,28.35,South,180,7.0,9.0,78,0.00,,,0.00,meteohub,2013-11-05 23:11:00,
2013-11-05 17:16:00,71.2,64.4,28.35,SE,135,11.0,11.0,79,0.00,,,0.00,meteohub,2013-11-05 23:16:00,
2013-11-05 17:21:00,70.7,64.2,28.35,South,180,3.0,11.0,80,0.00,,,0.00,meteohub,2013-11-05 23:21:00,
2013-11-05 17:26:00,70.9,64.8,28.35,East,90,6.0,11.0,81,0.00,,,0.00,meteohub,2013-11-05 23:26:00,
2013-11-05 17:31:00,70.3,64.2,28.35,East,90,5.0,11.0,81,0.00,,,0.00,meteohub,2013-11-05 23:31:00,
2013-11-05 17:36:00,70.2,64.4,28.35,SE,135,11.0,11.0,82,0.00,,,0.00,meteohub,2013-11-05 23:36:00,
2013-11-05 17:41:00,69.8,64.4,28.35,SE,135,10.0,11.0,83,0.00,,,0.00,meteohub,2013-11-05 23:41:00,
2013-11-05 17:46:00,69.8,64.8,28.35,SW,225,5.0,11.0,84,0.00,,,0.00,meteohub,2013-11-05 23:46:00,
2013-11-05 17:51:00,69.3,64.2,28.35,NE,45,3.0,13.0,84,0.00,,,0.00,meteohub,2013-11-05 23:51:00,
2013-11-05 17:56:00,69.1,64.4,28.35,East,90,7.0,13.0,85,0.00,,,0.00,meteohub,2013-11-05 23:56:00,
2013-11-05 18:01:00,68.9,64.2,28.35,NE,45,6.0,13.0,85,0.00,,,0.00,meteohub,2013-11-06 00:01:00,
2013-11-05 18:06:00,68.7,64.4,28.35,South,180,9.0,11.0,86,0.00,,,0.00,meteohub,2013-11-06 00:06:00,
2013-11-05 18:11:00,68.5,64.2,28.35,SSE,158,8.0,11.0,86,0.00,,,0.00,meteohub,2013-11-06 00:11:00,
2013-11-05 18:16:00,68.5,64.6,28.35,East,90,8.0,11.0,87,0.00,,,0.00,meteohub,2013-11-06 00:16:00,
2013-11-05 18:21:00,68.0,64.0,28.35,ESE,113,7.0,9.0,87,0.00,,,0.00,meteohub,2013-11-06 00:21:00,
2013-11-05 18:26:00,68.2,64.2,28.35,SE,135,6.0,12.0,87,0.00,,,0.00,meteohub,2013-11-06 00:26:00,
2013-11-05 18:31:00,68.0,64.4,28.35,East,90,11.0,12.0,88,0.00,,,0.00,meteohub,2013-11-06 00:31:00,
2013-11-05 18:36:00,67.6,64.0,28.35,SE,135,10.0,12.0,88,0.00,,,0.00,meteohub,2013-11-06 00:36:00,
2013-11-05 18:41:00,67.5,63.9,28.35,East,90,5.0,15.0,88,0.00,,,0.00,meteohub,2013-11-06 00:41:00,
2013-11-05 18:46:00,67.1,63.7,28.35,East,90,8.0,15.0,89,0.00,,,0.00,meteohub,2013-11-06 00:46:00,
2013-11-05 18:51:00,67.1,64.0,28.35,East,90,8.0,15.0,90,0.00,,,0.00,meteohub,2013-11-06 00:51:00,
2013-11-05 18:56:00,66.9,63.9,28.35,East,90,7.0,12.0,90,0.00,,,0.00,meteohub,2013-11-06 00:56:00,
2013-11-05 19:01:00,66.9,64.2,28.36,SE,135,13.0,13.0,91,0.00,,,0.00,meteohub,2013-11-06 01:01:00,
2013-11-05 19:06:00,67.1,64.4,28.36,SW,225,6.0,13.0,91,0.00,,,0.00,meteohub,2013-11-06 01:06:00,
2013-11-05 19:11:00,66.7,64.0,28.36,SE,135,1.0,13.0,91,0.00,,,0.00,meteohub,2013-11-06 01:11:00,
2013-11-05 19:16:00,66.7,64.4,28.37,SE,135,8.0,13.0,92,0.00,,,0.00,meteohub,2013-11-06 01:16:00,
2013-11-05 19:22:00,66.4,64.0,28.37,SE,135,6.0,9.0,92,0.00,,,0.00,meteohub,2013-11-06 01:22:00,
2013-11-05 19:27:00,66.2,63.9,28.37,South,180,3.0,9.0,92,0.00,,,0.00,meteohub,2013-11-06 01:27:00,
2013-11-05 19:32:00,66.2,64.0,28.37,South,180,2.0,8.0,93,0.00,,,0.00,meteohub,2013-11-06 01:32:00,
2013-11-05 19:37:00,65.7,63.5,28.37,SE,135,1.0,8.0,93,0.00,,,0.00,meteohub,2013-11-06 01:37:00,
2013-11-05 19:42:00,65.8,64.0,28.37,East,90,8.0,8.0,94,0.00,,,0.00,meteohub,2013-11-06 01:42:00,
2013-11-05 19:47:00,65.7,63.9,28.37,NE,45,1.0,8.0,94,0.00,,,0.00,meteohub,2013-11-06 01:47:00,
2013-11-05 19:52:00,65.5,64.0,28.38,East,90,1.0,8.0,95,0.00,,,0.00,meteohub,2013-11-06 01:52:00,
2013-11-05 19:57:00,65.3,63.9,28.38,SE,135,4.0,8.0,95,0.00,,,0.00,meteohub,2013-11-06 01:57:00,
2013-11-05 20:02:00,65.1,63.7,28.38,West,270,1.0,7.0,95,0.00,,,0.00,meteohub,2013-11-06 02:02:00,
2013-11-05 20:07:00,65.1,64.0,28.38,SW,225,2.0,6.0,96,0.00,,,0.00,meteohub,2013-11-06 02:07:00,
2013-11-05 20:12:00,64.8,63.7,28.39,West,270,6.0,6.0,96,0.00,,,0.00,meteohub,2013-11-06 02:12:00,
2013-11-05 20:17:00,64.8,63.7,28.40,West,270,4.0,6.0,96,0.00,,,0.00,meteohub,2013-11-06 02:17:00,
2013-11-05 20:22:00,64.4,63.5,28.40,SW,225,3.0,6.0,97,0.00,,,0.00,meteohub,2013-11-06 02:22:00,
2013-11-05 20:27:00,64.9,64.0,28.41,West,270,5.0,6.0,97,0.00,,,0.00,meteohub,2013-11-06 02:27:00,
2013-11-05 20:32:00,64.6,63.1,28.43,SW,225,30.0,30.0,95,0.00,,,0.00,meteohub,2013-11-06 02:32:00,
2013-11-05 20:37:00,61.2,58.3,28.47,NW,315,14.0,30.0,90,0.04,,,0.04,meteohub,2013-11-06 02:37:00,
2013-11-05 20:42:00,57.9,56.8,28.45,North,0,14.0,33.0,96,0.34,,,0.34,meteohub,2013-11-06 02:42:00,
2013-11-05 20:47:00,56.3,55.9,28.44,North,0,8.0,33.0,99,0.43,,,0.43,meteohub,2013-11-06 02:47:00,
2013-11-05 20:52:00,55.9,55.6,28.44,WNW,293,8.0,19.0,99,0.43,,,0.43,meteohub,2013-11-06 02:52:00,
2013-11-05 20:57:00,55.4,55.0,28.45,NE,45,15.0,19.0,99,0.44,,,0.44,meteohub,2013-11-06 02:57:00,
2013-11-05 21:02:00,55.0,54.7,28.46,WNW,293,11.0,15.0,99,0.45,,,0.45,meteohub,2013-11-06 03:02:00,
2013-11-05 21:07:00,54.7,54.3,28.47,North,0,15.0,15.0,99,0.45,,,0.45,meteohub,2013-11-06 03:07:00,
2013-11-05 21:12:00,54.1,53.8,28.48,North,0,11.0,15.0,99,0.45,,,0.45,meteohub,2013-11-06 03:12:00,
2013-11-05 21:17:00,53.8,53.4,28.50,NW,315,14.0,15.0,99,0.45,,,0.45,meteohub,2013-11-06 03:17:00,
2013-11-05 21:22:00,53.1,52.2,28.51,North,0,17.0,21.0,97,0.45,,,0.45,meteohub,2013-11-06 03:22:00,
2013-11-05 21:27:00,52.3,50.9,28.51,North,0,18.0,21.0,95,0.45,,,0.45,meteohub,2013-11-06 03:27:00,
2013-11-05 21:32:00,52.0,50.5,28.52,NW,315,15.0,21.0,95,0.45,,,0.45,meteohub,2013-11-06 03:32:00,
2013-11-05 21:37:00,51.8,50.2,28.52,North,0,23.0,23.0,94,0.19,,,0.46,meteohub,2013-11-06 03:37:00,
2013-11-05 21:42:00,51.8,50.4,28.53,North,0,11.0,23.0,95,0.06,,,0.46,meteohub,2013-11-06 03:42:00,
2013-11-05 21:47:00,51.4,49.8,28.52,North,0,14.0,23.0,94,0.04,,,0.46,meteohub,2013-11-06 03:47:00,
2013-11-05 21:52:00,51.3,49.8,28.52,North,0,19.0,23.0,95,0.02,,,0.46,meteohub,2013-11-06 03:52:00,
2013-11-05 21:57:00,51.1,49.6,28.53,North,0,11.0,21.0,95,0.04,,,0.47,meteohub,2013-11-06 03:57:00,
2013-11-05 22:02:00,50.9,49.5,28.54,North,0,18.0,19.0,95,0.02,,,0.47,meteohub,2013-11-06 04:02:00,
2013-11-05 22:07:00,50.9,49.5,28.55,North,0,14.0,20.0,95,0.04,,,0.48,meteohub,2013-11-06 04:07:00,
2013-11-05 22:12:00,50.9,49.5,28.55,NE,45,16.0,20.0,95,0.04,,,0.48,meteohub,2013-11-06 04:12:00,
2013-11-05 22:17:00,50.7,48.7,28.55,North,0,11.0,18.0,93,0.04,,,0.48,meteohub,2013-11-06 04:17:00,
2013-11-05 22:22:00,50.7,48.6,28.56,NW,315,12.0,17.0,92,0.04,,,0.48,meteohub,2013-11-06 04:22:00,
2013-11-05 22:27:00,50.5,48.0,28.56,North,0,17.0,17.0,91,0.04,,,0.48,meteohub,2013-11-06 04:27:00,
2013-11-05 22:32:00,50.5,48.4,28.56,NW,315,8.0,17.0,92,0.04,,,0.48,meteohub,2013-11-06 04:32:00,
2013-11-05 22:37:00,50.5,48.4,28.55,NW,315,9.0,17.0,92,0.02,,,0.48,meteohub,2013-11-06 04:37:00,
2013-11-05 22:42:00,50.5,48.4,28.55,North,0,9.0,17.0,92,0.02,,,0.48,meteohub,2013-11-06 04:42:00,
2013-11-05 22:47:00,50.7,48.2,28.56,North,0,10.0,16.0,91,0.02,,,0.48,meteohub,2013-11-06 04:47:00,
2013-11-05 22:52:00,50.5,48.0,28.56,North,0,11.0,15.0,91,0.02,,,0.48,meteohub,2013-11-06 04:52:00,
2013-11-05 22:57:00,50.5,48.0,28.56,NW,315,7.0,15.0,91,0.01,,,0.48,meteohub,2013-11-06 04:57:00,
2013-11-05 23:01:00,50.5,48.4,28.56,North,0,8.0,15.0,92,0.00,,,0.48,meteohub,2013-11-06 05:01:00,
2013-11-05 23:02:00,50.5,48.4,28.56,North,0,10.0,15.0,92,0.00,,,0.48,meteohub,2013-11-06 05:02:00,
2013-11-05 23:07:00,50.4,46.9,28.56,North,0,10.0,14.0,88,0.00,,,0.48,meteohub,2013-11-06 05:07:00,
2013-11-05 23:12:00,50.2,46.8,28.57,North,0,11.0,14.0,88,0.00,,,0.48,meteohub,2013-11-06 05:12:00,
2013-11-05 23:17:00,50.0,46.0,28.57,West,270,9.0,14.0,86,0.00,,,0.48,meteohub,2013-11-06 05:17:00,
2013-11-05 23:22:00,49.8,45.1,28.57,SW,225,13.0,15.0,84,0.00,,,0.48,meteohub,2013-11-06 05:22:00,
2013-11-05 23:27:00,49.5,44.6,28.58,NW,315,13.0,17.0,83,0.00,,,0.48,meteohub,2013-11-06 05:27:00,
2013-11-05 23:32:00,49.6,44.8,28.58,NW,315,10.0,17.0,83,0.00,,,0.48,meteohub,2013-11-06 05:32:00,
2013-11-05 23:37:00,49.6,44.4,28.58,NW,315,13.0,17.0,82,0.00,,,0.48,meteohub,2013-11-06 05:37:00,
2013-11-05 23:42:00,49.5,44.6,28.59,North,0,8.0,16.0,83,0.00,,,0.48,meteohub,2013-11-06 05:42:00,
2013-11-05 23:47:00,49.6,44.8,28.59,West,270,9.0,15.0,83,0.00,,,0.48,meteohub,2013-11-06 05:47:00,
2013-11-05 23:52:00,49.5,44.6,28.59,WNW,293,8.0,15.0,83,0.00,,,0.48,meteohub,2013-11-06 05:52:00,
2013-11-05 23:57:00,49.3,45.0,28.60,North,0,11.0,15.0,85,0.00,,,0.48,meteohub,2013-11-06 05:57:00,